Temperature
20 20 21 20 18 18 19 20 20 20 21 21 20 20 19 18 18 17 17 17 18 18 17 17 18 18 17 17 17 17 17 17 17 17 17 17 17 17 17 17 17 17 17 17 17 17 17 18 17
21 21 20 20 18 18 19 20 20 21 21 21 20 20 19 18 18 17 17 17 18 18 18 18 18 18 17 17 17 17 17 17 17 17 17 17 17 17 17 17 17 17 17 17 17 17 17 17 17
21 21 20 18 18 19 20 20 20 21 21 21 20 19 19 18 18 17 17 17 18 18 18 18 18 18 17 17 17 17 17 17 17 17 17 17 17 17 17 17 17 17 17 17 17 17 17 17 17
21 21 20 18 19 19 20 20 21 21 21 21 20 18 18 18 18 18 17 18 18 17 17 17 18 17 17 17 17 17 17 17 17 17 17 16 16 16 17 17 17 17 17 17 17 17 17 17 17
21 21 18 18 19 20 20 21 21 21 21 20 19 18 18 18 18 18 18 18 18 17 17 17 17 17 17 17 17 17 17 17 17 17 17 16 16 16 16 16 17 17 17 17 17 17 17 17 17
21 19 18 19 20 20 20 21 21 20 20 20 19 18 18 18 18 18 18 18 18 17 17 17 17 17 17 17 17 17 17 17 17 17 17 16 17 17 17 17 17 17 17 16 16 17 16 16 16
20 18 19 19 19 20 21 21 21 20 20 20 20 18 18 18 18 18 18 18 17 17 17 17 17 17 17 17 17 17 17 17 17 17 16 17 17 17 16 16 16 16 16 16 16 16 16 16 16
21 18 19 19 19 20 21 21 21 21 21 20 20 18 18 18 18 18 18 17 17 17 17 17 17 17 17 17 17 17 17 17 17 16 16 16 16 16 16 16 16 16 16 16 16 16 16 16 16
22 18 18 19 20 20 21 21 21 21 21 20 20 20 19 18 18 18 18 17 17 17 17 17 17 17 17 17 17 17 17 16 16 16 16 16 16 16 16 16 16 16 16 16 16 16 16 16 16
21 18 20 20 20 20 21 21 21 21 20 19 19 19 19 18 18 18 18 18 18 18 17 17 17 17 17 17 17 17 17 16 16 16 16 16 16 16 16 16 16 16 16 16 16 16 16 16 16
21 19 20 21 21 21 21 21 21 20 19 19 19 19 19 18 18 18 18 18 18 18 17 17 17 17 17 17 17 17 17 17 16 16 16 16 16 16 16 16 16 16 16 16 16 16 16 16 16
21 21 21 21 22 21 21 21 21 21 20 21 20 20 19 19 19 19 18 18 18 18 18 18 17 17 17 17 17 17 17 17 17 17 16 16 16 16 16 16 16 16 16 16 16 16 16 16 16
21 21 22 22 22 21 21 21 20 20 21 20 20 20 19 19 19 19 19 18 18 18 18 18 18 17 17 17 17 17 17 17 17 17 17 17 17 16 16 16 16 16 16 16 16 16 16 16 16
21 21 21 21 21 21 21 20 20 20 20 20 20 20 20 19 19 19 19 18 18 18 18 18 18 18 17 17 17 17 17 17 17 17 17 17 17 16 16 16 16 16 16 16 16 16 16 16 16
22 20 20 21 21 21 21 19 19 20 20 20 20 20 20 19 19 19 19 19 19 18 18 18 18 18 18 17 17 17 17 17 17 17 17 17 17 16 16 16 16 16 16 16 16 16 16 16 16
21 20 19 20 21 21 20 19 19 20 20 20 20 19 19 19 19 19 19 19 19 19 18 18 18 18 17 17 17 17 17 17 17 17 17 17 17 16 16 16 16 16 16 16 16 16 16 16 16
19 19 19 20 21 21 20 19 19 20 20 20 20 19 19 19 19 19 19 19 19 19 18 18 18 18 18 17 17 17 17 17 17 17 17 17 17 16 16 16 16 16 16 16 16 16 16 15 15
19 19 20 20 20 20 19 19 19 20 20 20 19 19 19 19 19 19 19 19 19 19 18 18 18 18 18 17 17 17 17 17 17 17 17 17 16 16 16 16 16 16 16 16 16 15 15 15 15
20 20 20 20 20 20 19 19 19 19 20 19 19 19 19 19 19 19 19 19 19 19 18 18 18 18 18 17 17 17 17 17 17 17 16 16 16 16 16 16 16 16 16 16 15 15 15 15 15
20 20 19 20 20 20 19 19 19 19 19 20 19 19 19 19 19 19 19 19 19 19 18 18 18 18 18 17 17 17 17 17 16 16 16 16 16 16 16 16 16 16 15 15 15 15 15 15 15
20 20 19 20 20 19 19 18 18 19 19 19 19 19 19 19 19 19 19 19 19 18 18 18 18 18 17 17 17 17 17 16 16 16 16 16 16 16 16 16 16 15 15 15 15 15 15 15 15
20 21 21 20 19 17 18 17 18 18 18 18 19 19 19 19 19 19 19 19 19 18 18 18 18 17 17 17 17 17 17 16 16 16 16 16 16 16 16 16 16 15 15 15 15 15 15 15 15
20 21 21 20 19 18 18 17 17 17 18 18 18 19 19 19 19 19 19 19 19 18 18 18 18 17 17 17 17 17 17 16 16 16 16 16 16 16 15 15 15 15 15 15 15 15 15 14 14
21 20 19 18 17 17 18 17 17 17 18 18 18 19 19 19 19 19 19 19 19 18 18 18 18 17 17 17 17 16 16 16 16 16 16 16 16 16 15 15 15 15 15 15 15 15 14 14 14
20 18 17 17 16 17 18 18 17 18 18 19 18 19 19 19 19 19 18 19 18 18 18 18 17 17 17 17 16 16 16 16 16 16 16 16 16 15 15 15 15 15 15 15 14 14 14 14 14
20 18 17 17 17 17 18 18 18 19 20 20 20 19 19 19 19 18 18 18 18 18 18 18 17 17 17 17 16 16 16 16 16 16 16 15 15 15 15 15 15 15 15 14 14 14 14 14 14
20 18 18 17 17 17 17 18 19 19 18 19 19 18 18 18 18 18 18 18 18 18 18 17 17 17 17 17 16 16 16 16 15 15 15 15 15 15 15 15 15 14 14 14 14 14 14 14 14
20 19 16 17 17 17 18 18 17 18 18 18 18 18 18 18 18 18 18 18 18 18 18 17 17 17 17 16 16 16 16 15 15 15 15 15 15 15 15 15 14 14 14 14 14 14 14 13 13
20 19 17 16 16 16 16 17 18 17 18 17 18 18 18 18 18 18 18 18 17 17 17 17 17 17 17 16 16 16 15 15 15 15 15 15 15 14 14 14 14 14 14 14 14 13 13 13 13
20 19 17 17 17 16 15 16 19 18 18 18 18 18 18 18 18 18 18 17 17 17 17 17 17 16 16 16 16 16 15 15 15 15 15 15 14 14 14 14 14 14 14 13 13 13 13 13 13
Wind_Speed
1 1 3 3 5 5 3 2 1 3 4 4 7 9 8 6 4 5 2 6 8 7 7 9 9 9 9 9 10 10 11 11 12 11 11 11 11 11 11 11 12 11 12 11 11 11 11 11 11
1 1 3 4 5 4 2 1 4 3 5 6 7 8 8 6 5 6 4 7 9 8 8 8 9 9 9 10 10 10 10 11 11 11 11 10 11 11 11 11 11 11 11 11 10 10 10 10 10
0 1 3 4 3 3 3 2 3 4 4 5 5 6 5 4 4 4 6 9 9 8 8 9 10 10 10 10 10 10 10 10 10 10 10 10 11 10 10 10 10 10 10 10 10 10 10 10 10
2 4 4 5 4 1 3 3 3 5 5 6 6 6 4 3 3 6 9 11 9 7 8 10 11 11 10 10 10 10 10 10 10 10 10 11 11 10 10 10 10 10 10 9 9 9 10 10 11
4 4 5 3 2 1 2 2 4 6 3 5 7 6 3 3 8 10 10 10 10 6 7 9 10 10 10 10 9 9 9 9 10 10 10 10 10 10 10 10 10 9 9 9 9 9 10 10 11
4 4 4 3 2 2 2 3 7 9 7 7 8 6 2 2 7 8 9 8 8 8 7 8 10 10 10 10 9 9 9 9 9 10 10 10 10 10 9 9 9 9 8 8 8 9 10 10 11
4 4 3 3 2 2 1 2 5 6 5 4 6 6 3 3 6 8 8 8 7 7 7 6 7 8 9 9 9 8 8 9 10 10 10 10 9 8 8 8 8 8 8 8 7 8 9 9 10
5 4 3 1 2 1 0 2 3 4 4 4 5 7 5 6 7 7 7 7 6 6 5 6 6 6 6 6 7 7 7 8 9 9 8 8 8 7 7 6 7 7 7 6 6 6 7 8 9
4 5 2 2 3 1 1 4 3 4 6 4 4 5 7 9 8 7 6 5 5 5 5 5 5 5 5 5 6 6 6 6 6 6 6 6 5 4 4 5 5 6 5 5 5 5 6 7 9
4 4 2 2 4 3 2 4 3 4 7 6 6 6 8 8 8 8 7 6 5 5 5 5 5 5 5 5 5 4 4 4 4 4 5 4 4 4 4 4 4 4 4 4 4 4 6 6 6
3 4 3 2 4 4 4 3 2 6 4 5 9 10 9 7 7 7 6 6 5 5 5 5 5 5 5 3 4 3 3 4 3 4 5 5 4 4 3 2 2 2 2 3 4 4 5 5 5
4 2 3 3 3 3 3 3 3 3 4 6 10 11 10 9 7 7 7 6 5 5 5 6 6 5 5 4 3 3 2 2 2 3 5 5 4 3 3 2 2 1 2 2 3 3 4 5 7
4 2 2 4 4 5 5 4 3 1 4 7 9 8 8 7 7 6 6 6 6 5 5 5 6 5 5 4 3 3 2 2 2 3 4 6 4 2 2 2 2 2 3 3 3 4 5 5 6
4 4 3 3 3 3 5 2 3 2 5 8 8 7 6 7 6 5 5 5 5 6 5 4 5 5 5 4 3 3 3 3 3 3 4 6 5 4 3 2 3 3 4 4 5 5 5 4 5
4 4 3 1 1 2 5 4 1 4 6 8 7 6 6 5 6 6 6 6 6 5 5 4 5 5 5 4 4 4 4 4 3 3 4 6 6 6 5 3 3 3 5 6 6 6 6 5 5
3 3 1 2 1 2 5 1 3 3 7 7 6 5 5 4 5 5 6 6 5 5 4 4 5 5 4 4 3 3 4 4 3 3 4 5 6 7 6 4 3 4 6 6 4 4 4 4 4
2 2 1 1 1 2 4 3 4 2 6 6 5 5 5 4 3 4 5 6 5 6 6 4 5 5 4 4 3 3 3 3 3 3 3 4 5 7 6 4 3 6 5 4 3 3 3 3 3
3 2 2 2 1 3 3 3 3 2 6 6 5 5 5 5 5 4 5 5 5 5 5 5 5 5 5 4 3 3 3 2 3 3 3 4 5 6 6 4 4 5 4 3 3 3 3 2 2
4 3 2 1 1 2 2 3 3 3 4 5 5 5 6 6 4 4 4 5 5 5 6 5 6 4 4 3 2 2 2 1 2 2 4 5 5 6 5 4 4 4 3 3 3 3 3 2 3
4 4 1 1 1 2 1 2 3 4 5 6 7 7 7 5 3 3 4 4 5 5 5 5 5 5 4 3 2 2 2 1 1 2 4 5 5 5 5 4 3 3 3 3 3 3 2 1 2
1 3 3 2 1 2 3 2 3 3 2 3 5 6 7 8 7 6 5 4 5 5 6 6 6 5 4 4 4 4 4 3 3 3 2 3 5 5 5 5 4 3 3 3 3 3 4 2 0
2 3 5 4 3 2 2 1 5 4 2 3 4 5 6 7 6 6 6 5 5 6 6 5 5 5 4 5 5 5 4 3 1 1 1 2 4 5 5 5 5 3 3 3 3 3 3 3 1
4 3 3 3 3 0 1 3 5 3 5 6 6 7 7 7 8 8 7 7 5 5 6 5 5 4 4 5 6 5 4 3 2 2 3 2 2 4 4 5 4 3 3 2 2 2 2 2 3
2 3 3 4 3 1 4 4 5 5 7 6 6 7 7 7 8 7 6 5 4 4 5 5 6 4 4 5 5 6 6 5 4 3 3 2 2 2 2 4 4 3 3 2 2 2 3 2 3
4 5 3 3 2 4 3 3 6 6 6 8 8 8 7 7 7 7 5 5 5 5 5 6 6 5 4 5 5 6 6 6 5 4 3 3 2 1 1 2 2 2 2 3 3 3 2 2 3
2 6 5 3 3 3 1 3 5 3 3 5 6 6 6 6 6 6 6 6 5 6 6 6 6 5 4 5 5 5 6 5 4 4 3 3 2 2 2 3 3 3 3 3 3 2 2 2 2
2 2 5 4 1 1 3 2 4 3 3 4 5 6 6 7 7 7 6 5 5 6 6 7 7 5 5 5 5 5 5 4 4 4 3 2 2 2 3 3 3 3 3 4 4 3 2 2 2
4 5 4 3 2 1 3 3 3 3 3 3 4 5 6 6 6 6 6 6 5 6 5 6 6 6 5 5 5 5 5 5 5 4 4 3 3 2 3 3 2 3 3 4 4 3 2 3 2
1 1 3 3 4 4 2 5 4 7 7 6 5 5 6 7 7 7 6 5 5 4 4 5 4 4 4 4 4 4 4 5 4 4 4 4 3 3 3 3 3 3 3 3 4 3 3 3 2
4 4 5 3 2 3 3 5 4 6 6 6 5 4 4 6 6 6 6 5 4 4 4 4 4 4 4 4 4 4 4 4 4 4 4 3 3 3 3 3 3 3 3 3 4 3 2 3 2
Wind_Direction
331 14 84 60 58 56 50 346 78 54 60 57 68 79 82 64 86 129 181 142 132 128 121 120 117 115 110 107 107 107 104 103 104 104 103 100 98 97 94 93 92 89 86 84 83 81 77 73 71
24 64 62 58 78 78 32 355 79 77 129 122 78 75 77 73 85 111 125 138 132 127 124 118 116 113 110 108 106 108 108 108 108 109 107 106 101 98 97 95 92 90 86 85 83 80 77 73 71
226 69 76 64 82 128 144 172 121 97 98 101 76 55 68 97 106 126 146 141 129 125 126 124 117 111 110 108 106 108 109 110 111 111 110 107 104 101 100 98 95 92 88 86 83 79 77 74 71
74 47 56 69 79 146 157 173 136 100 65 68 94 70 58 60 122 134 137 136 128 127 128 128 122 117 113 109 109 110 112 111 111 114 113 110 106 103 102 100 99 96 92 89 85 81 79 74 72
66 71 59 56 56 47 108 136 101 90 78 81 94 95 70 25 107 124 133 135 133 132 132 131 128 123 119 114 110 109 110 114 113 115 116 112 108 106 104 103 101 99 96 92 86 82 78 74 73
53 67 77 83 82 71 54 89 95 92 102 101 102 108 101 117 120 131 135 136 138 138 137 135 133 128 123 119 114 110 110 116 118 119 118 115 111 110 107 105 104 103 99 94 88 84 80 74 70
98 85 104 128 118 71 67 74 101 115 118 123 121 109 132 153 146 137 135 134 137 139 134 135 135 130 126 125 120 114 112 117 120 119 118 118 117 116 115 111 109 106 103 96 91 85 78 74 70
126 97 78 89 106 81 9 81 102 110 111 119 116 131 163 187 158 130 126 129 134 139 142 147 144 136 130 132 137 132 131 131 129 126 125 126 125 124 123 118 114 109 104 99 93 85 78 74 74
95 79 102 164 143 152 116 82 51 65 87 74 86 134 160 152 133 120 116 119 136 147 157 160 161 160 157 154 154 152 147 144 140 139 143 135 129 130 133 132 126 115 106 97 87 83 72 70 74
86 109 170 176 151 143 112 100 105 79 78 85 86 100 128 135 137 140 144 152 154 161 170 169 172 174 176 174 161 168 168 162 157 155 160 162 156 156 156 154 141 126 103 79 73 72 64 67 73
116 146 144 119 127 119 102 85 77 111 109 156 149 150 146 148 151 151 156 160 165 168 166 168 179 174 170 167 161 165 167 169 175 175 162 156 147 146 145 141 123 105 84 59 58 53 62 76 88
100 117 137 137 117 103 107 101 72 104 169 169 155 152 155 158 166 164 161 165 158 154 157 162 169 168 174 163 157 155 154 167 168 169 152 141 137 132 136 133 142 131 94 72 65 76 80 90 98
94 104 102 117 113 114 101 94 104 120 145 138 139 140 152 158 167 171 161 161 153 154 160 164 162 165 161 149 157 139 144 148 140 120 131 138 138 135 135 132 123 119 105 98 90 87 86 92 96
140 115 92 98 105 108 109 94 100 175 139 132 140 146 152 157 159 150 150 159 165 163 166 165 160 160 151 152 148 143 149 142 119 119 127 135 134 138 132 116 102 99 103 106 99 92 87 86 92
122 96 42 15 142 147 103 46 153 179 140 141 152 152 144 149 149 156 163 166 167 161 158 157 161 149 143 148 149 148 152 144 139 137 127 126 129 133 129 115 100 98 99 97 92 82 79 80 81
70 69 54 287 154 162 113 160 251 185 147 153 159 150 149 162 169 171 161 160 163 151 144 153 149 133 132 129 127 132 136 135 142 135 125 129 128 128 123 115 105 106 102 96 89 80 77 73 73
36 112 163 285 277 134 123 181 242 194 151 162 169 166 163 163 181 178 159 156 159 155 146 144 129 127 126 114 108 106 106 109 119 119 117 127 126 129 127 118 113 115 103 89 99 87 96 94 79
198 181 172 189 278 103 126 193 221 205 155 161 170 172 163 167 190 187 166 162 158 152 141 134 127 130 123 102 84 78 78 79 87 96 114 128 126 123 125 121 113 114 101 87 91 97 86 97 98
157 142 145 225 185 106 138 189 214 200 156 159 165 164 166 180 192 171 155 153 144 138 132 137 134 133 119 102 95 97 95 90 83 89 100 114 120 122 120 118 114 117 114 123 118 107 95 82 93
123 120 92 18 141 112 149 238 241 205 191 175 172 176 181 179 153 152 145 143 148 150 142 145 151 148 140 136 134 129 122 106 96 80 72 93 108 123 127 123 126 124 120 111 105 110 109 101 99
119 163 179 184 35 43 94 337 284 262 214 171 175 176 181 181 172 168 162 155 150 157 161 161 159 157 153 136 108 86 70 55 49 50 46 64 99 111 122 127 125 130 133 138 138 136 139 152 114
210 216 174 170 137 239 157 222 267 246 225 202 187 181 187 182 170 166 165 161 163 170 163 156 155 151 145 133 127 128 125 127 165 141 97 72 91 106 117 122 125 125 126 135 153 150 148 148 173
201 206 168 172 152 355 223 173 271 228 216 223 205 189 187 180 171 171 173 175 173 166 156 154 149 146 142 137 138 135 127 137 130 105 91 74 71 93 109 115 117 120 124 132 136 130 133 144 157
144 61 34 47 81 290 230 178 262 224 212 209 206 195 187 174 170 171 170 159 158 151 144 147 146 148 147 141 139 140 140 136 125 119 113 97 75 67 88 110 109 121 129 126 127 129 130 129 125
72 88 40 5 6 258 229 185 250 239 206 192 191 192 186 171 167 161 152 155 156 150 148 148 148 153 155 146 146 149 148 145 148 151 146 135 113 100 113 108 112 118 129 126 117 115 116 121 121
190 141 158 196 225 283 317 231 267 271 193 170 161 161 162 160 165 167 170 163 159 160 156 152 155 159 155 154 158 154 151 148 153 155 147 155 163 176 155 126 117 113 113 109 109 106 121 118 123
152 179 176 150 193 271 283 286 329 21 102 133 145 147 163 170 169 168 168 163 160 160 163 163 161 161 162 165 160 153 152 150 158 159 144 152 169 162 143 127 121 114 108 108 109 105 112 111 106
159 153 99 119 162 242 280 262 236 221 191 169 166 170 177 175 169 170 172 172 170 165 158 158 162 166 164 159 163 160 162 166 163 151 153 163 173 152 139 131 121 108 102 104 104 105 106 102 103
159 121 123 133 157 161 233 268 226 193 191 182 186 180 177 175 171 173 176 176 167 156 153 152 155 154 159 164 163 159 164 165 157 158 176 175 163 159 153 153 138 126 121 111 109 112 110 109 94
177 175 147 153 220 170 178 259 268 175 174 169 171 178 174 172 168 166 163 153 149 152 152 157 160 162 174 169 157 162 165 154 156 169 179 163 154 157 159 151 144 140 134 132 135 138 124 129 132
Height
1515 1515 1515 1517 1519 1528 1532 1527 1522 1520 1520 1522 1521 1521 1524 1528 1532 1539 1536 1535 1536 1535 1536 1536 1536 1535 1535 1535 1534 1534 1534 1534 1534 1534 1534 1534 1535 1535 1535 1535 1535 1535 1535 1535 1535 1535 1535 1534 1534
1515 1516 1517 1517 1526 1538 1535 1526 1523 1521 1521 1521 1522 1524 1526 1530 1532 1533 1534 1536 1536 1536 1536 1536 1536 1536 1535 1535 1535 1535 1535 1534 1534 1535 1535 1535 1536 1536 1536 1536 1536 1536 1536 1536 1536 1536 1536 1535 1535
1516 1516 1518 1520 1529 1536 1533 1525 1522 1521 1521 1521 1524 1526 1529 1532 1533 1534 1535 1536 1537 1537 1537 1537 1537 1536 1536 1535 1535 1535 1535 1535 1535 1535 1536 1536 1536 1536 1537 1537 1537 1537 1537 1537 1537 1537 1537 1537 1536
1517 1518 1519 1526 1530 1527 1524 1523 1521 1521 1522 1523 1525 1529 1532 1534 1534 1535 1536 1537 1537 1538 1538 1538 1537 1537 1536 1536 1536 1536 1536 1536 1536 1536 1536 1537 1537 1537 1538 1538 1538 1539 1539 1538 1538 1538 1538 1538 1537
1517 1518 1525 1531 1530 1526 1522 1521 1521 1521 1524 1526 1526 1531 1534 1535 1535 1536 1537 1538 1538 1538 1539 1538 1538 1538 1537 1537 1537 1537 1537 1537 1537 1537 1538 1538 1538 1539 1539 1539 1540 1540 1540 1540 1540 1540 1539 1539 1539
1519 1520 1532 1536 1531 1526 1524 1522 1522 1524 1526 1527 1528 1532 1535 1536 1536 1537 1538 1539 1539 1539 1539 1539 1539 1539 1538 1538 1538 1538 1538 1538 1538 1539 1539 1540 1540 1540 1540 1541 1541 1541 1541 1541 1541 1541 1541 1541 1540
1520 1524 1532 1533 1532 1528 1525 1524 1524 1525 1526 1528 1529 1532 1536 1537 1538 1538 1539 1539 1540 1540 1540 1540 1540 1540 1540 1540 1540 1540 1539 1539 1540 1540 1541 1541 1542 1542 1542 1543 1543 1543 1543 1543 1543 1543 1543 1542 1542
1519 1524 1531 1532 1532 1530 1525 1524 1525 1526 1527 1529 1530 1532 1535 1537 1538 1539 1540 1540 1541 1541 1541 1541 1541 1541 1541 1541 1541 1541 1541 1541 1542 1542 1543 1543 1544 1544 1544 1544 1545 1545 1545 1544 1544 1544 1544 1544 1543
1519 1528 1534 1531 1530 1529 1526 1525 1526 1527 1527 1529 1530 1531 1533 1536 1538 1539 1540 1541 1542 1542 1542 1542 1542 1543 1543 1543 1543 1543 1543 1543 1544 1544 1544 1545 1545 1546 1546 1546 1546 1546 1546 1546 1546 1546 1546 1545 1545
1520 1531 1529 1525 1525 1526 1526 1526 1527 1529 1529 1531 1532 1533 1535 1537 1538 1539 1540 1541 1542 1542 1543 1543 1543 1543 1544 1544 1544 1544 1544 1545 1545 1545 1546 1546 1547 1547 1547 1548 1548 1548 1548 1548 1548 1547 1547 1547 1546
1521 1526 1524 1524 1524 1525 1526 1527 1528 1529 1531 1532 1532 1533 1535 1537 1539 1540 1540 1541 1542 1542 1543 1544 1544 1544 1545 1545 1545 1545 1546 1546 1546 1547 1547 1547 1548 1548 1548 1549 1549 1549 1549 1549 1549 1549 1548 1548 1548
1522 1523 1523 1524 1525 1525 1526 1527 1529 1529 1531 1531 1532 1533 1535 1537 1538 1540 1540 1541 1542 1543 1543 1544 1544 1545 1545 1546 1546 1546 1547 1547 1547 1548 1548 1548 1549 1549 1550 1550 1550 1550 1550 1550 1550 1550 1550 1549 1549
1523 1524 1524 1524 1525 1526 1527 1528 1530 1531 1531 1532 1533 1534 1536 1537 1538 1540 1541 1542 1542 1543 1543 1544 1545 1545 1546 1546 1547 1547 1548 1548 1548 1549 1549 1550 1550 1550 1550 1551 1551 1551 1552 1551 1551 1551 1551 1551 1550
1524 1524 1525 1525 1526 1527 1528 1530 1531 1532 1532 1533 1534 1535 1536 1537 1538 1540 1541 1542 1542 1543 1544 1545 1545 1546 1546 1547 1547 1548 1548 1549 1549 1549 1550 1550 1551 1551 1551 1552 1552 1552 1552 1553 1553 1552 1552 1552 1552
1524 1526 1527 1527 1526 1528 1529 1533 1532 1532 1532 1533 1534 1535 1536 1538 1539 1540 1541 1541 1542 1543 1544 1545 1546 1546 1547 1547 1548 1548 1549 1549 1550 1550 1551 1551 1551 1552 1552 1552 1553 1553 1553 1553 1553 1553 1553 1553 1553
1526 1531 1536 1529 1527 1528 1532 1540 1532 1532 1532 1533 1534 1535 1537 1538 1539 1539 1540 1541 1542 1543 1544 1545 1546 1546 1547 1548 1548 1549 1549 1550 1550 1551 1551 1551 1552 1552 1553 1553 1553 1554 1554 1554 1554 1554 1554 1554 1554
1532 1539 1538 1533 1527 1528 1532 1537 1532 1532 1532 1533 1534 1535 1536 1538 1539 1540 1540 1541 1542 1543 1544 1545 1546 1546 1547 1548 1549 1549 1550 1550 1551 1551 1551 1552 1552 1553 1553 1553 1554 1554 1555 1555 1555 1555 1555 1555 1555
1539 1538 1536 1536 1530 1529 1533 1534 1532 1532 1532 1533 1534 1535 1536 1537 1538 1539 1540 1541 1542 1543 1544 1545 1546 1547 1547 1548 1549 1549 1550 1550 1551 1551 1552 1552 1552 1553 1553 1553 1554 1554 1555 1555 1555 1555 1555 1555 1555
1529 1533 1536 1534 1529 1531 1534 1534 1532 1531 1532 1532 1533 1534 1535 1536 1537 1538 1540 1540 1542 1543 1544 1545 1545 1546 1547 1548 1548 1549 1549 1550 1551 1551 1551 1552 1552 1553 1553 1553 1554 1554 1555 1555 1555 1555 1556 1556 1556
1528 1534 1537 1533 1529 1532 1536 1535 1532 1531 1530 1531 1532 1533 1534 1535 1536 1537 1538 1540 1541 1542 1543 1544 1545 1546 1547 1548 1548 1549 1549 1550 1550 1551 1551 1551 1552 1552 1552 1553 1554 1554 1554 1555 1555 1555 1555 1556 1556
1529 1533 1534 1535 1532 1532 1537 1541 1535 1531 1530 1530 1530 1531 1533 1534 1535 1536 1537 1539 1540 1541 1542 1544 1545 1546 1547 1548 1548 1549 1549 1549 1550 1550 1550 1551 1551 1551 1552 1552 1553 1553 1554 1554 1554 1554 1555 1555 1556
1533 1526 1528 1531 1539 1545 1541 1554 1540 1533 1531 1530 1530 1530 1531 1533 1534 1535 1536 1537 1539 1540 1542 1543 1544 1545 1546 1547 1547 1548 1548 1548 1549 1550 1550 1550 1551 1551 1551 1552 1552 1552 1553 1553 1553 1554 1554 1554 1555
1526 1523 1526 1530 1536 1544 1543 1551 1545 1534 1534 1530 1528 1528 1530 1531 1532 1534 1535 1536 1537 1539 1541 1542 1543 1544 1545 1546 1547 1547 1548 1548 1549 1549 1550 1550 1550 1551 1551 1551 1551 1551 1552 1552 1552 1553 1553 1553 1554
1521 1525 1530 1535 1542 1553 1544 1549 1546 1536 1530 1527 1526 1527 1528 1530 1531 1532 1534 1535 1537 1538 1540 1541 1542 1543 1545 1545 1546 1546 1547 1548 1548 1548 1549 1549 1549 1550 1550 1550 1550 1550 1551 1551 1551 1551 1552 1552 1552
1524 1539 1553 1555 1559 1555 1539 1543 1540 1525 1522 1522 1523 1525 1527 1528 1530 1531 1533 1534 1536 1537 1538 1540 1541 1542 1543 1544 1545 1545 1546 1547 1547 1548 1548 1548 1549 1549 1549 1549 1549 1549 1550 1550 1550 1550 1551 1551 1551
1527 1535 1552 1560 1561 1553 1540 1542 1533 1520 1519 1520 1522 1523 1525 1527 1529 1530 1532 1533 1534 1536 1537 1539 1540 1541 1542 1543 1544 1544 1545 1546 1546 1547 1547 1547 1548 1548 1548 1548 1549 1549 1549 1549 1549 1549 1549 1550 1550
1527 1533 1534 1545 1548 1553 1547 1536 1527 1521 1521 1521 1522 1523 1524 1526 1527 1529 1531 1532 1533 1535 1536 1537 1539 1540 1541 1542 1542 1543 1544 1544 1545 1546 1546 1547 1547 1547 1548 1548 1548 1548 1548 1548 1548 1548 1548 1548 1548
1522 1527 1538 1546 1554 1559 1549 1543 1539 1528 1525 1523 1523 1523 1524 1525 1526 1528 1529 1531 1532 1534 1535 1536 1537 1538 1539 1540 1541 1542 1543 1543 1544 1545 1545 1545 1546 1546 1547 1547 1547 1547 1547 1547 1547 1547 1547 1547 1547
1524 1528 1534 1544 1547 1555 1558 1548 1523 1523 1521 1522 1522 1522 1523 1524 1525 1526 1528 1529 1531 1532 1534 1535 1536 1537 1538 1539 1540 1540 1541 1542 1543 1543 1544 1544 1545 1545 1545 1546 1546 1546 1546 1546 1546 1546 1546 1545 1545
1520 1524 1532 1544 1545 1547 1552 1545 1517 1517 1518 1520 1521 1521 1522 1523 1524 1525 1526 1528 1529 1531 1532 1533 1535 1535 1536 1537 1538 1539 1540 1540 1541 1542 1542 1543 1543 1544 1544 1544 1544 1544 1544 1544 1544 1544 1544 1544 1544